Weather History for Paganella, Italy

Change the Weather History Date:

Tuesday, September 17, 2013

  Actual Average Record
Temperature  
Mean Temperature 32 °F -  
Max Temperature 36 °F 46 °F 60 °F (2003)
Min Temperature 29 °F 37 °F 28 °F (2001)
Degree Days  
Heating Degree Days 32    
Moisture  
Dew Point 26 °F    
Average Humidity 71    
Maximum Humidity 100    
Minimum Humidity 33    
Precipitation  
Precipitation 0.00 in 0.11 in - ()
Sea Level Pressure  
Sea Level Pressure 29.65 in    
Wind  
Wind Speed 11 mph ()    
Max Wind Speed 21 mph    
Max Gust Speed -    
Visibility 4.1 miles    
Events Fog , Rain , Thunderstorm    
Averages and records for this station are not official NWS values.
T = Trace of Precipitation, MM = Missing Value Source: Averaged Metar Reports

Daily Weather History Graph

Daily Weather History Graph

Search for Another Location

Airport:

Trip Planner

Search our weather history database for the weather conditions in past years. The results will help you decide how hot, cold, wet, or windy it might be!

Date:

Astronomy

Sep. 17, 2013 Rise Set
Actual Time 6:56 AM CEST 7:23 PM CEST
Civil Twilight 6:26 AM CEST 7:53 PM CEST
Nautical Twilight 5:50 AM CEST 8:28 PM CEST
Astronomical Twilight 5:13 AM CEST 9:05 PM CEST
Moon 6:03 PM CEST (9/17) 4:26 AM CEST (9/17)
Length of Visible Light 13h 26m
Length of Day
12h 26m
Waxing Gibbous, 94% of the Moon is Illuminated
Sep 17
Waxing Gibbous
Sep 19
Full
Sep 27
Last Quarter
Oct 5
New
Oct 12
First Quarter

Hourly Weather History & Observations

Time (CEST) Temp. Windchill Dew Point Humidity Pressure Visibility Wind Dir Wind Speed Gust Speed Precip Events Conditions
12:55 AM 39.2 °F 30.5 °F 39.2 °F 100% 29.62 in 0.2 mi SW 16.1 mph - N/A Fog Fog
1:55 AM 39.2 °F 30.5 °F 39.2 °F 100% 29.56 in 0.0 mi WSW 16.1 mph - N/A Fog Fog
2:00 AM 40 °F - 40 °F 98%  in 0 mi WSW 16.1 mph - - Fog Heavy Fog
2:55 AM 39.2 °F 31.2 °F 39.2 °F 100% 29.56 in 0.0 mi SW 13.8 mph - N/A Fog Fog
3:55 AM 39.2 °F 32.0 °F 39.2 °F 100% 29.53 in 0.0 mi WSW 11.5 mph - N/A Fog Fog
4:19 AM 35.6 °F 30.7 °F 35.6 °F 100% 29.50 in 0.0 mi North 5.8 mph - N/A Fog , Rain , Thunderstorm Heavy Thunderstorms and Rain
4:55 AM 35.6 °F 32.8 °F 35.6 °F 100% 29.53 in 0.0 mi Variable 3.5 mph - N/A Fog , Rain Light Rain
5:55 AM 32.0 °F 23.0 °F 32.0 °F 100% 29.53 in 0.1 mi North 11.5 mph - N/A Fog Fog
6:55 AM 30.2 °F 17.4 °F 30.2 °F 100% 29.53 in 0.2 mi North 20.7 mph - N/A Fog Fog
7:55 AM 30.2 °F 18.5 °F 28.4 °F 93% 29.56 in 6.2 mi North 17.3 mph - N/A   Partly Cloudy
8:00 AM 29 °F - 28 °F 97%  in 37 mi North 17.3 mph - - Fog Light Fog
8:55 AM 30.2 °F 18.9 °F 23.0 °F 75% 29.59 in 6.2 mi North 16.1 mph - N/A   Partly Cloudy
9:55 AM 30.2 °F 19.3 °F 23.0 °F 75% 29.62 in 6.2 mi NNW 15.0 mph - N/A   Partly Cloudy
10:55 AM 32.0 °F 20.8 °F 23.0 °F 69% 29.65 in 6.2 mi North 17.3 mph - N/A   Partly Cloudy
11:00 AM 32 °F - 23 °F 60%  in 31 mi North 17.3 mph - -   Scattered Clouds
11:55 AM 33.8 °F 24.3 °F 23.0 °F 65% 29.65 in 6.2 mi North 13.8 mph - N/A   Partly Cloudy
12:55 PM 33.8 °F 24.3 °F 23.0 °F 65% 29.68 in 6.2 mi North 13.8 mph - N/A   Partly Cloudy
1:55 PM 35.6 °F 27.5 °F 23.0 °F 60% 29.68 in 6.2 mi North 11.5 mph - N/A   Partly Cloudy
2:00 PM 35 °F - 22 °F 48%  in 31 mi North 11.5 mph - -   Scattered Clouds
2:55 PM 35.6 °F 29.9 °F 23.0 °F 60% 29.71 in 6.2 mi North 6.9 mph - N/A   Partly Cloudy
3:55 PM 35.6 °F - 23.0 °F 60% 29.74 in 6.2 mi North 2.3 mph - N/A   Partly Cloudy
4:55 PM 35.6 °F - 21.2 °F 56% 29.74 in 6.2 mi North 2.3 mph - N/A   Scattered Clouds
5:00 PM 36 °F - 21 °F 41%  in 44 mi North 2.3 mph - -   Partly Cloudy
5:55 PM 35.6 °F - 19.4 °F 52% 29.74 in 6.2 mi North 2.3 mph - N/A   Scattered Clouds
6:55 PM 35.6 °F 32.8 °F 17.6 °F 48% 29.74 in 6.2 mi NNE 3.5 mph - N/A   Mostly Cloudy
7:55 PM 35.6 °F - 17.6 °F 48% 29.74 in 6.2 mi North 2.3 mph - N/A   Mostly Cloudy
8:00 PM 36 °F - 18 °F 33%  in 37 mi North 2.3 mph - -   Mostly Cloudy
8:55 PM 33.8 °F 27.0 °F 17.6 °F 52% 29.77 in 6.2 mi WSW 8.1 mph - N/A   Mostly Cloudy
9:55 PM 33.8 °F 25.8 °F 19.4 °F 56% 29.80 in 6.2 mi WSW 10.4 mph - N/A   Scattered Clouds
10:55 PM 33.8 °F 27.0 °F 19.4 °F 56% 29.77 in 6.2 mi WSW 8.1 mph - N/A   Scattered Clouds
11:00 PM 34 °F - 19 °F 42%  in 31 mi WSW 8.1 mph - -   Partly Cloudy
11:55 PM 33.8 °F 25.8 °F 19.4 °F 56% 29.77 in 6.2 mi SSW 10.4 mph - N/A   Mostly Cloudy